Simultaneous Nadir Overpasses (SNOs) Predictions

Prediction of SNOs between METOP-C and LANDSAT-8 Satellite Orbit:

Table of predicted SNOs for the next 14.0 days since TLE Epoch: 3/21/2020
Index Date (METOP-C) Time (METOP-C) Lat,Lon (METOP-C) SZA (METOP-C ) Date (LANDSAT-8) Time (LANDSAT-8) Lat,Lon (LANDSAT-8) SZA (LANDSAT-8 ) Distance(km) Time Diff (sec)
1 03/23/2020 05:39:15 81.04, 133.12 81.54 03/23/2020 05:40:02 81.04, 133.28 81.57 2.73 47
2 03/23/2020 06:29:52 -81.09, -58.26 98.32 03/23/2020 06:29:27 -81.09, -58.41 98.35 2.58 25
3 03/26/2020 01:13:36 81.06,-159.90 80.53 03/26/2020 01:14:14 81.06,-160.07 80.52 2.89 38
4 03/26/2020 02:04:15 -81.08, 7.96 99.43 03/26/2020 02:03:40 -81.08, 7.91 99.45 0.83 35
5 03/28/2020 20:48:00 81.05, -93.69 79.43 03/28/2020 20:48:28 81.05, -93.80 79.42 2.26 28
6 03/28/2020 21:38:39 -81.07, 74.17 100.52 03/28/2020 21:37:54 -81.07, 74.21 100.54 0.65 45
7 03/31/2020 16:22:23 81.06, -27.11 78.38 03/31/2020 16:22:41 81.06, -27.21 78.38 1.82 18
8 03/31/2020 17:13:02 -81.08, 140.75 101.57 03/31/2020 17:12:07 -81.08, 140.83 101.58 1.36 55
9 04/03/2020 11:56:45 81.07, 39.46 77.35 04/03/2020 11:56:53 81.06, 39.36 77.34 1.73 8




NCC Satellite Simultaneous Nadir Overpasses (SNOs) Prediction Service
